ACA177 MMAA-CYVR

Flight info

Callsign ACA177
Flight time N/A
Altitude 38000
Route VIDRU2 VIDRU UJ3 MZT UJ7 CUL UT12 VYLLA DCT CADDU DCT IVEYY DCT BAM DCT KOATA
Aircraft B737/M-SDE2E3FGHIRWXY/LB1

Departure

Time 2026-05-06 02:27
Airport General Juan N. Álvarez International Airport (MMAA)

Arrival

Time N/A
Airport Vancouver International Airport (CYVR)
Time Latitude Longitude Altitude Speed Heading
2026-05-06 01:31 16.76147 -99.75555 17 ft 0 kts 19°
2026-05-06 01:45 16.76146 -99.75555 16 ft 0 kts 19°
2026-05-06 02:12 16.76139 -99.75557 18 ft 4 kts 20°
2026-05-06 02:13 16.76114 -99.75568 16 ft 4 kts 24°
2026-05-06 02:13 16.76090 -99.75580 16 ft 4 kts 30°
2026-05-06 02:13 16.76067 -99.75596 19 ft 4 kts 46°
2026-05-06 02:13 16.76056 -99.75616 18 ft 3 kts 100°
2026-05-06 02:14 16.76056 -99.75620 18 ft 2 kts 107°
2026-05-06 02:15 16.76055 -99.75618 18 ft 1 kts 107°
2026-05-06 02:16 16.76049 -99.75595 17 ft 6 kts 107°
2026-05-06 02:16 16.76030 -99.75534 18 ft 11 kts 108°
2026-05-06 02:16 16.76004 -99.75451 16 ft 13 kts 109°
2026-05-06 02:16 16.75989 -99.75407 16 ft 6 kts 110°
2026-05-06 02:17 16.75975 -99.75366 16 ft 7 kts 109°
2026-05-06 02:17 16.75969 -99.75353 16 ft 1 kts 123°
2026-05-06 02:17 16.75945 -99.75351 19 ft 7 kts 176°
2026-05-06 02:17 16.75892 -99.75319 16 ft 11 kts 115°
2026-05-06 02:18 16.75863 -99.75236 16 ft 11 kts 109°
2026-05-06 02:18 16.75840 -99.75159 18 ft 11 kts 107°
2026-05-06 02:18 16.75817 -99.75083 17 ft 11 kts 107°
2026-05-06 02:18 16.75795 -99.75009 16 ft 11 kts 107°
2026-05-06 02:19 16.75772 -99.74937 18 ft 11 kts 109°
2026-05-06 02:19 16.75746 -99.74858 16 ft 13 kts 108°
2026-05-06 02:19 16.75715 -99.74761 18 ft 15 kts 108°
2026-05-06 02:19 16.75679 -99.74647 16 ft 18 kts 108°
2026-05-06 02:20 16.75595 -99.74377 18 ft 21 kts 108°
2026-05-06 02:20 16.75547 -99.74224 17 ft 23 kts 108°
2026-05-06 02:20 16.75495 -99.74060 18 ft 25 kts 108°
2026-05-06 02:21 16.75441 -99.73885 17 ft 26 kts 108°
2026-05-06 02:21 16.75384 -99.73703 16 ft 27 kts 108°
2026-05-06 02:21 16.75327 -99.73521 16 ft 26 kts 108°
2026-05-06 02:21 16.75284 -99.73387 16 ft 12 kts 109°
2026-05-06 02:22 16.75249 -99.73333 16 ft 7 kts 151°
2026-05-06 02:22 16.75226 -99.73328 16 ft 0 kts 182°
2026-05-06 02:24 16.75205 -99.73332 17 ft 7 kts 193°
2026-05-06 02:24 16.75152 -99.73348 18 ft 9 kts 197°
2026-05-06 02:24 16.75097 -99.73388 18 ft 11 kts 248°
2026-05-06 02:25 16.75099 -99.73427 17 ft 0 kts 285°
2026-05-06 02:26 16.75112 -99.73472 18 ft 29 kts 287°
2026-05-06 02:27 16.75241 -99.73893 16 ft 91 kts 288°
2026-05-06 02:27 16.75494 -99.74694 17 ft 139 kts 288°
2026-05-06 02:27 16.75829 -99.75761 220 ft 161 kts 288°
2026-05-06 02:27 16.76166 -99.76789 1018 ft 143 kts 288°
2026-05-06 02:28 16.76538 -99.77849 1217 ft 174 kts 289°
2026-05-06 02:28 16.77040 -99.79113 1489 ft 195 kts 294°
2026-05-06 02:28 16.77534 -99.80419 2158 ft 202 kts 288°
2026-05-06 02:28 16.78003 -99.81845 2835 ft 213 kts 289°
2026-05-06 02:29 16.78562 -99.83334 3458 ft 231 kts 288°
2026-05-06 02:29 16.78987 -99.85067 3822 ft 257 kts 283°
2026-05-06 02:29 16.79540 -99.86853 4714 ft 263 kts 299°
2026-05-06 02:29 16.80848 -99.88186 5469 ft 267 kts 332°
2026-05-06 02:30 16.82657 -99.88798 5884 ft 278 kts 345°
2026-05-06 02:30 16.84545 -99.89294 6001 ft 280 kts 345°
2026-05-06 02:30 16.86432 -99.89795 6029 ft 281 kts 345°
2026-05-06 02:30 16.88304 -99.90301 6036 ft 282 kts 345°
2026-05-06 02:31 16.90190 -99.90819 6226 ft 282 kts 345°
2026-05-06 02:31 16.92176 -99.91370 6501 ft 308 kts 345°
2026-05-06 02:31 16.94298 -99.91960 6750 ft 321 kts 345°
2026-05-06 02:31 16.96379 -99.92779 6942 ft 321 kts 326°
2026-05-06 02:32 16.98094 -99.94246 7222 ft 320 kts 319°
2026-05-06 02:32 16.99801 -99.95761 7442 ft 323 kts 320°
2026-05-06 02:32 17.01540 -99.97266 7673 ft 326 kts 320°
2026-05-06 02:32 17.03269 -99.98749 7948 ft 325 kts 321°
2026-05-06 02:33 17.05002 -100.00233 8446 ft 323 kts 321°
2026-05-06 02:33 17.06187 -100.01245 8783 ft 329 kts 321°
2026-05-06 02:34 17.12168 -100.06355 10392 ft 337 kts 322°
2026-05-06 02:34 17.13985 -100.07908 10838 ft 339 kts 322°
2026-05-06 02:34 17.15815 -100.09472 11314 ft 340 kts 321°
2026-05-06 02:34 17.17652 -100.11042 11790 ft 343 kts 321°
2026-05-06 02:35 17.19481 -100.12607 12269 ft 346 kts 321°
2026-05-06 02:35 17.21353 -100.14209 12780 ft 349 kts 322°
2026-05-06 02:35 17.23245 -100.15829 13284 ft 353 kts 322°
2026-05-06 02:35 17.25160 -100.17468 13786 ft 357 kts 322°
2026-05-06 02:36 17.27090 -100.19122 14220 ft 361 kts 322°
2026-05-06 02:36 17.29043 -100.20795 14694 ft 364 kts 322°
2026-05-06 02:36 17.31014 -100.22484 15148 ft 368 kts 322°
2026-05-06 02:36 17.32999 -100.24186 15621 ft 370 kts 322°
2026-05-06 02:37 17.34973 -100.25879 16105 ft 373 kts 321°
2026-05-06 02:37 17.36987 -100.27608 16581 ft 376 kts 322°
2026-05-06 02:37 17.39019 -100.29351 17084 ft 379 kts 321°
2026-05-06 02:37 17.41079 -100.31102 17571 ft 383 kts 324°
2026-05-06 02:38 17.43201 -100.32797 18099 ft 386 kts 323°
2026-05-06 02:38 17.45347 -100.34517 18585 ft 391 kts 323°
2026-05-06 02:38 17.47536 -100.36236 19055 ft 395 kts 324°
2026-05-06 02:38 17.49762 -100.37939 19605 ft 398 kts 325°
2026-05-06 02:39 17.51998 -100.39654 20158 ft 399 kts 321°
2026-05-06 02:39 17.54022 -100.41598 20713 ft 401 kts 315°
2026-05-06 02:39 17.56009 -100.43664 21282 ft 404 kts 316°
2026-05-06 02:39 17.58079 -100.45725 21415 ft 418 kts 318°
2026-05-06 02:40 17.60288 -100.47779 21533 ft 432 kts 320°
2026-05-06 02:40 17.62618 -100.49836 21602 ft 443 kts 321°
2026-05-06 02:40 17.65038 -100.51905 21685 ft 454 kts 321°
2026-05-06 02:40 17.67519 -100.54000 21896 ft 460 kts 321°
2026-05-06 02:41 17.70022 -100.56109 22269 ft 462 kts 321°
2026-05-06 02:41 17.72527 -100.58224 22670 ft 464 kts 321°
2026-05-06 02:41 17.75048 -100.60360 22883 ft 468 kts 321°
2026-05-06 02:41 17.77594 -100.62521 23143 ft 473 kts 321°
2026-05-06 02:42 17.80149 -100.64708 23463 ft 475 kts 320°
2026-05-06 02:42 17.82702 -100.66912 23775 ft 476 kts 320°
2026-05-06 02:42 17.85224 -100.69098 24050 ft 477 kts 320°
2026-05-06 02:42 17.87787 -100.71318 24297 ft 478 kts 320°
2026-05-06 02:43 17.90358 -100.73543 24604 ft 480 kts 320°
2026-05-06 02:43 17.92945 -100.75780 24866 ft 483 kts 320°
2026-05-06 02:43 17.95538 -100.78024 25150 ft 484 kts 320°
2026-05-06 02:43 17.98128 -100.80273 25468 ft 483 kts 320°
2026-05-06 02:44 18.00722 -100.82534 25735 ft 485 kts 320°
2026-05-06 02:44 18.03320 -100.84800 25951 ft 487 kts 320°
2026-05-06 02:44 18.05897 -100.87049 26231 ft 488 kts 320°
2026-05-06 02:44 18.08513 -100.89331 26493 ft 489 kts 320°
2026-05-06 02:45 18.11133 -100.91616 26747 ft 490 kts 319°
2026-05-06 02:45 18.13764 -100.93906 26932 ft 492 kts 319°
2026-05-06 02:45 18.16404 -100.96195 27154 ft 493 kts 319°
2026-05-06 02:45 18.19058 -100.98492 27379 ft 495 kts 319°
2026-05-06 02:46 18.21718 -101.00794 27608 ft 496 kts 319°
2026-05-06 02:46 18.24384 -101.03105 27844 ft 497 kts 319°
2026-05-06 02:46 18.27053 -101.05419 28006 ft 498 kts 319°
2026-05-06 02:46 18.29732 -101.07744 28211 ft 499 kts 319°
2026-05-06 02:47 18.32378 -101.10043 28414 ft 500 kts 319°
2026-05-06 02:47 18.35060 -101.12374 28679 ft 500 kts 319°
2026-05-06 02:47 18.37735 -101.14699 29011 ft 497 kts 319°
2026-05-06 02:47 18.40397 -101.17014 29337 ft 495 kts 319°
2026-05-06 02:48 18.43046 -101.19319 29645 ft 494 kts 319°
2026-05-06 02:48 18.45696 -101.21626 29900 ft 495 kts 319°
2026-05-06 02:48 18.48345 -101.23934 30165 ft 494 kts 319°
2026-05-06 02:48 18.50989 -101.26237 30508 ft 491 kts 318°
2026-05-06 02:49 18.53605 -101.28516 30939 ft 486 kts 318°
2026-05-06 02:49 18.56168 -101.30750 31361 ft 483 kts 318°
2026-05-06 02:49 18.58750 -101.33003 31774 ft 480 kts 318°
2026-05-06 02:49 18.61310 -101.35239 32175 ft 477 kts 318°
2026-05-06 02:50 18.63858 -101.37465 32569 ft 475 kts 318°
2026-05-06 02:50 18.66395 -101.39684 32980 ft 472 kts 318°
2026-05-06 02:50 18.68915 -101.41888 33372 ft 470 kts 318°
2026-05-06 02:50 18.71426 -101.44086 33763 ft 467 kts 317°
2026-05-06 02:51 18.73918 -101.46268 34171 ft 464 kts 318°
2026-05-06 02:51 18.76365 -101.48412 34468 ft 464 kts 318°
2026-05-06 02:51 18.78848 -101.50589 34654 ft 465 kts 317°
2026-05-06 02:51 18.81337 -101.52771 34878 ft 465 kts 318°
2026-05-06 02:52 18.83821 -101.54950 35181 ft 463 kts 318°
2026-05-06 02:52 18.86298 -101.57122 35458 ft 462 kts 318°
2026-05-06 02:52 18.88767 -101.59289 35689 ft 462 kts 318°
2026-05-06 02:52 18.91243 -101.61463 35938 ft 462 kts 318°
2026-05-06 02:53 18.93714 -101.63633 36177 ft 462 kts 318°
2026-05-06 02:53 18.96181 -101.65801 36416 ft 461 kts 318°
2026-05-06 02:53 18.98646 -101.67968 36635 ft 461 kts 318°
2026-05-06 02:53 19.01077 -101.70106 36814 ft 461 kts 318°
2026-05-06 02:54 19.03545 -101.72277 37007 ft 462 kts 318°
2026-05-06 02:54 19.06015 -101.74451 37225 ft 461 kts 318°
2026-05-06 02:54 19.08477 -101.76619 37455 ft 460 kts 318°
2026-05-06 02:54 19.10933 -101.78781 37671 ft 459 kts 318°
2026-05-06 02:55 19.13386 -101.80942 37861 ft 459 kts 319°
2026-05-06 02:55 19.18318 -101.85292 37932 ft 462 kts 319°
2026-05-06 02:56 19.23212 -101.89610 37932 ft 459 kts 318°
2026-05-06 02:56 19.28098 -101.93925 37958 ft 456 kts 318°
2026-05-06 02:57 19.32958 -101.98222 37962 ft 454 kts 318°
2026-05-06 02:57 19.37805 -102.02509 37964 ft 453 kts 318°
2026-05-06 02:58 19.42452 -102.06998 37991 ft 452 kts 312°
2026-05-06 02:58 19.46714 -102.11840 37989 ft 453 kts 310°
2026-05-06 02:59 19.50995 -102.16751 37993 ft 454 kts 311°
2026-05-06 02:59 19.55333 -102.21636 37997 ft 456 kts 311°
2026-05-06 03:00 19.59712 -102.26527 37993 ft 458 kts 311°
2026-05-06 03:00 19.64104 -102.31431 37999 ft 459 kts 311°
2026-05-06 03:01 19.68508 -102.36356 37978 ft 460 kts 311°
2026-05-06 03:01 19.72920 -102.41295 37983 ft 461 kts 311°
2026-05-06 03:02 19.77300 -102.46205 37955 ft 461 kts 311°